User: anonymous   Login
Location: Unspecified
(0.0000°N, 0.0000°E)
Time: 19:24:06
(UTC+00:00)
Language:

HXMT - Orbit

View from above orbital plane
View from above orbital plane
View from above satellite
View from above satellite

Ground track
Ground track

The orbit is defined by the following mean orbital elements,

1 42758U          26145.63650288 +.00000000 +00000-0 +23989-3 0 00009
2 42758  43.0145 308.5912 0031560 359.6803   0.4021 15.18241137    02
Epoch (UTC): 25 May 2026 15:16:33
Eccentricity: 0.0031560
inclination: 43.0145°
perigee height: 489 km
apogee height: 533 km
right ascension of ascending node: 308.5912°
argument of perigee: 359.6803°
revolutions per day: 15.18241137
mean anomaly at epoch: 0.4021°

The dashed part of the orbit path shows where the satellite is in the earth's shadow,  

DLR